Location: Haliburton Scout Reserve
(45.0900°N, 78.3200°W)
Time: 09:12:18
(UTC-04:00)

S-56A Canister/Altair - Pass Details

Date: 04 February 2023
Orbit: 638 x 2493 km, 38.9° (Epoch: 25 March)

Event Time Altitude Azimuth Distance (km) Brightness Sun altitude
Rises 16:11:58 0° 271° (W) 3,547 11.9 10.4°
Reaches altitude 10° 16:14:41 10° 257° (WSW) 2,817 12.0 10.0°
Maximum altitude 16:20:08 25° 204° (SSW) 2,328 11.1 9.2°
Drops below altitude 10° 16:27:26 10° 155° (SSE) 3,875 11.3 8.2°
Sets 16:31:58 0° 144° (SE) 5,207 11.7 7.5°
